Regional Weather Roundup
Issued by NWS

Home | Current Version | Previous Version | Text Only | Print | Product List | Glossary On
Versions: 1 2 3 4 5 6 7 8 9 10 11 12 13 14 15 16 17 18 19 20 21 22 23 24 25 26 27 28 29 30 31 32 33 34 35 36 37 38 39 40 41 42 43 44 45 46 47 48 49 50
121
ASUS43 KLSX 081557
RWRMO

WEATHER SUMMARY FOR MISSOURI
NATIONAL WEATHER SERVICE SPRINGFIELD MO
1000 AM CST THU DEC 08 2016

NOTE: "FAIR" INDICATES FEW OR NO CLOUDS BELOW 12,000 FEET WITH NO
       SIGNIFICANT WEATHER AND/OR OBSTRUCTIONS TO VISIBILITY.
       CURRENT SKY AND/OR WEATHER CONDITIONS ARE NOT AVAILABLE FOR
       CHILLICOTHE AND FARMINGTON.

MOZ001>031-035>038-043-044-053-054-081700-
...NORTHERN AND WESTERN MISSOURI...

CITY           SKY/WX    TMP DP  RH WIND       PRES   REMARKS
KANSAS CTY INT SUNNY     18   6  59 NW16      30.62R WCI   3
LEE`S SUMMIT   SUNNY     18   8  65 NW14      30.61R WCI   4
ST JOSEPH      SUNNY     18   6  59 NW21G26   30.63R WCI   1
CHILLICOTHE      N/A     19   8  62 NW13G23   30.60R WCI   6

$$
MOZ066>068-077>081-088>096-101>105-081700-
...SOUTHWEST MISSOURI...

CITY           SKY/WX    TMP DP  RH WIND       PRES   REMARKS
SPRINGFIELD    SUNNY     20  10  65 NW13      30.59R WCI   7
JOPLIN         SUNNY     21  11  65 NW14      30.67R WCI   8
BRANSON        PTSUNNY   23   9  54 NW10      30.58R WCI  12

$$
MOZ032>034-039>042-045>050-055>058-069>072-081700-
...CENTRAL MISSOURI...

CITY           SKY/WX    TMP DP  RH WIND       PRES   REMARKS
COLUMBIA       NOT AVBL
JEFFERSON CITY SUNNY     22  10  60 NW13      30.59R WCI  10
ROLLA          SUNNY     21  11  65 W18       30.52R WCI   6
SEDALIA        SUNNY     21  11  65 NW15      30.60R WCI   8
WARRENSBURG    SUNNY     21  10  63 W9G16     30.62R WCI  11

$$
MOZ051-052-059>065-081700-
...EAST CENTRAL MISSOURI...

CITY           SKY/WX    TMP DP  RH WIND       PRES   REMARKS
ST LOUIS INTL  MOSUNNY   25  10  53 W16G25    30.51R WCI  12

$$
MOZ072>076-082>087-097>100-106>115-081700-
...SOUTH CENTRAL AND SOUTHEAST MISSOURI...

CITY           SKY/WX    TMP DP  RH WIND       PRES   REMARKS
CAPE GIRARDEAU SUNNY     28  12  51 W13       30.53R WCI  17
POPLAR BLUFF   CLOUDY    30  12  47 NW12      30.55R WCI  20

$$



USA.gov is the U.S. government's official web portal to all federal, state and local government web resources and services.